User: anonymous   Login
Location: Caltech
(34.1382°N, 118.1253°W)
Time: 03:37:33
(UTC-07:00)
Language:

GPS 2-04 Rocket1 - Orbit

View from above orbital plane
View from above orbital plane
View from above satellite
View from above satellite

Ground track
Ground track

The orbit data is extracted from the following two-line orbital elements,

1 20303U 89085B   17113.90409732 +.00008240 +00000-0 +29167-3 0  9997
2 20303 035.6306 018.5097 0106470 051.5434 309.4791 15.23215519492803
Epoch (UTC): 23 April 2017 21:41:54
Eccentricity: 0.0106470
inclination: 35.6306°
perigee height: 423 km
apogee height: 569 km
right ascension of ascending node: 18.5097°
argument of perigee: 51.5434°
revolutions per day: 15.23215519
mean anomaly at epoch: 309.4791°
orbit number at epoch: 49280

The dashed part of the orbit path shows where the satellite is in the earth's shadow,  

DLR